TAP23SL KSFO-LPPT

Flight info

Callsign TAP23SL
Flight time N/A
Altitude 37000
Route TRUKN2 TIPRE Q126 GAROT DCT EKR J84 SNY DCT OBH DCT OVR DCT BDF/N0465F390 DCT FWA J64 RAV DCT JFK DCT DOVEY/M082F390 DCT 42N060W 43N050W 43N040W 4230N03000W 41N020W DCT ERPES/N0466F390 DCT LAZET
Aircraft A332/H-SDE3GHIJ2J3J5M1RVWXY/LB2D1

Departure

Time N/A
Airport San Francisco International Airport (KSFO)

Arrival

Time 2026-05-04 19:36
Airport Lisbon Humberto Delgado Airport (LPPT)
Time Latitude Longitude Altitude Speed Heading
2026-05-04 18:22 41.58699 -23.22599 37335 ft 471 kts 102°
2026-05-04 18:22 41.57274 -23.14062 37390 ft 472 kts 102°
2026-05-04 18:23 41.55822 -23.05396 37329 ft 483 kts 102°
2026-05-04 18:23 41.54345 -22.96628 37326 ft 489 kts 102°
2026-05-04 18:24 41.52847 -22.87787 37328 ft 488 kts 102°
2026-05-04 18:24 41.51344 -22.78952 37327 ft 488 kts 102°
2026-05-04 18:25 41.49834 -22.70123 37325 ft 488 kts 102°
2026-05-04 18:25 41.48317 -22.61297 37325 ft 488 kts 102°
2026-05-04 18:26 41.46803 -22.52531 37320 ft 488 kts 102°
2026-05-04 18:26 41.45271 -22.43708 37322 ft 489 kts 102°
2026-05-04 18:27 41.43731 -22.34877 37320 ft 490 kts 102°
2026-05-04 18:27 41.42192 -22.26091 37321 ft 490 kts 102°
2026-05-04 18:28 41.40636 -22.17258 37320 ft 489 kts 102°
2026-05-04 18:28 41.39076 -22.08439 37319 ft 489 kts 103°
2026-05-04 18:29 41.37510 -21.99629 37319 ft 489 kts 103°
2026-05-04 18:29 41.35945 -21.90872 37317 ft 489 kts 103°
2026-05-04 18:30 41.33573 -21.77669 37319 ft 489 kts 103°
2026-05-04 18:31 41.31979 -21.68850 37314 ft 490 kts 103°
2026-05-04 18:31 41.30379 -21.60043 37314 ft 490 kts 103°
2026-05-04 18:32 41.28774 -21.51244 37312 ft 490 kts 103°
2026-05-04 18:32 41.27171 -21.42501 37313 ft 490 kts 103°
2026-05-04 18:33 41.25550 -21.33694 37310 ft 491 kts 103°
2026-05-04 18:33 41.23918 -21.24874 37306 ft 491 kts 103°
2026-05-04 18:34 41.22281 -21.16067 37307 ft 491 kts 103°
2026-05-04 18:34 41.20648 -21.07322 37306 ft 491 kts 103°
2026-05-04 18:35 41.18995 -20.98511 37307 ft 492 kts 103°
2026-05-04 18:35 41.17335 -20.89702 37305 ft 492 kts 103°
2026-05-04 18:36 41.15667 -20.80888 37304 ft 492 kts 104°
2026-05-04 18:36 41.09928 -20.50870 37300 ft 493 kts 104°
2026-05-04 18:37 41.05772 -20.29409 37336 ft 493 kts 104°
2026-05-04 18:37 41.04052 -20.20596 37296 ft 494 kts 104°
2026-05-04 18:38 41.02324 -20.11785 37300 ft 495 kts 104°
2026-05-04 18:38 41.00584 -20.02949 37289 ft 497 kts 104°
2026-05-04 18:39 40.98925 -19.94141 37293 ft 497 kts 103°
2026-05-04 18:39 40.97363 -19.85232 37290 ft 497 kts 102°
2026-05-04 18:40 40.95807 -19.76327 37289 ft 497 kts 102°
2026-05-04 18:40 40.94225 -19.67398 37285 ft 499 kts 103°
2026-05-04 18:41 40.92637 -19.58531 37288 ft 499 kts 103°
2026-05-04 18:41 40.91030 -19.49611 37286 ft 498 kts 103°
2026-05-04 18:42 40.89416 -19.40697 37287 ft 499 kts 103°
2026-05-04 18:42 40.87793 -19.31769 37281 ft 500 kts 103°
2026-05-04 18:43 40.86173 -19.22900 37286 ft 500 kts 103°
2026-05-04 18:43 40.84534 -19.13970 37283 ft 500 kts 103°
2026-05-04 18:44 40.82887 -19.05038 37282 ft 502 kts 103°
2026-05-04 18:44 40.81230 -18.96087 37271 ft 502 kts 103°
2026-05-04 18:45 40.79574 -18.87193 37281 ft 502 kts 103°
2026-05-04 18:45 40.77905 -18.78263 37278 ft 501 kts 103°
2026-05-04 18:46 40.76228 -18.69337 37274 ft 501 kts 103°
2026-05-04 18:46 40.74545 -18.60416 37273 ft 501 kts 103°
2026-05-04 18:47 40.72865 -18.51551 37275 ft 501 kts 103°
2026-05-04 18:47 40.71167 -18.42637 37288 ft 502 kts 103°
2026-05-04 18:48 40.69460 -18.33711 37269 ft 503 kts 104°
2026-05-04 18:48 40.67744 -18.24784 37272 ft 502 kts 104°
2026-05-04 18:49 40.66035 -18.15926 37265 ft 502 kts 104°
2026-05-04 18:49 40.64307 -18.07016 37276 ft 502 kts 104°
2026-05-04 18:50 40.62568 -17.98085 37266 ft 505 kts 104°
2026-05-04 18:50 40.60814 -17.89120 37264 ft 505 kts 104°
2026-05-04 18:51 40.56689 -17.68192 37266 ft 505 kts 104°
2026-05-04 18:51 40.49535 -17.32397 37253 ft 507 kts 104°
2026-05-04 18:52 40.42233 -16.96499 37246 ft 509 kts 105°
2026-05-04 18:52 40.34793 -16.60543 37236 ft 512 kts 105°
2026-05-04 18:53 40.27263 -16.24770 37235 ft 513 kts 105°
2026-05-04 18:53 40.19534 -15.88665 37230 ft 515 kts 105°
2026-05-04 18:54 40.11668 -15.52526 37221 ft 519 kts 106°
2026-05-04 18:54 40.03653 -15.16309 37209 ft 517 kts 106°
2026-05-04 18:55 39.95516 -14.80271 37200 ft 520 kts 107°
2026-05-04 18:55 39.83075 -14.26435 38022 ft 519 kts 107°
2026-05-04 18:56 39.78840 -14.08403 38748 ft 521 kts 108°
2026-05-04 18:56 39.74584 -13.90416 39193 ft 525 kts 108°
2026-05-04 18:56 39.67990 -13.62814 38512 ft 522 kts 108°
2026-05-04 18:57 39.66926 -13.58391 39653 ft 502 kts 108°
2026-05-04 18:57 39.65917 -13.54200 40419 ft 485 kts 108°
2026-05-04 18:57 39.64928 -13.50103 41213 ft 467 kts 108°
2026-05-04 18:57 39.63975 -13.46164 42008 ft 448 kts 108°
2026-05-04 18:58 39.63060 -13.42393 42775 ft 429 kts 109°
2026-05-04 18:58 39.62182 -13.38790 43509 ft 409 kts 109°
2026-05-04 18:58 39.60380 -13.31672 42130 ft 444 kts 110°
2026-05-04 18:59 39.59380 -13.27759 41186 ft 468 kts 108°
2026-05-04 18:59 39.58397 -13.23687 40438 ft 492 kts 108°
2026-05-04 18:59 39.57355 -13.19360 39743 ft 513 kts 108°
2026-05-04 18:59 39.56274 -13.14902 39321 ft 522 kts 108°
2026-05-04 19:00 39.55178 -13.10404 39203 ft 524 kts 108°
2026-05-04 19:00 39.54076 -13.05899 39182 ft 525 kts 108°
2026-05-04 19:00 39.51858 -12.96882 39163 ft 525 kts 109°
2026-05-04 19:01 39.49633 -12.87881 39177 ft 525 kts 109°
2026-05-04 19:01 39.47415 -12.78943 39175 ft 524 kts 109°
2026-05-04 19:02 39.45177 -12.69963 39172 ft 525 kts 109°
2026-05-04 19:02 39.42927 -12.60964 39170 ft 526 kts 109°
2026-05-04 19:03 39.40667 -12.51960 39172 ft 526 kts 109°
2026-05-04 19:03 39.38418 -12.43034 39166 ft 526 kts 109°
2026-05-04 19:04 39.36143 -12.34039 39159 ft 527 kts 109°
2026-05-04 19:04 39.33862 -12.25049 39160 ft 526 kts 110°
2026-05-04 19:05 39.31575 -12.16074 39159 ft 526 kts 110°
2026-05-04 19:05 39.29295 -12.07154 39162 ft 526 kts 110°
2026-05-04 19:06 39.26993 -11.98184 39159 ft 527 kts 110°
2026-05-04 19:06 39.24679 -11.89202 39153 ft 528 kts 110°
2026-05-04 19:07 39.22356 -11.80213 39159 ft 528 kts 110°
2026-05-04 19:07 39.20027 -11.71235 39141 ft 527 kts 110°
2026-05-04 19:08 39.17714 -11.62350 39152 ft 526 kts 110°
2026-05-04 19:08 39.16549 -11.57888 38882 ft 522 kts 110°
2026-05-04 19:08 39.15383 -11.53433 37968 ft 528 kts 110°
2026-05-04 19:09 39.14204 -11.48933 37213 ft 531 kts 110°
2026-05-04 19:09 39.13020 -11.44423 36515 ft 532 kts 110°
2026-05-04 19:09 39.11832 -11.39907 35759 ft 535 kts 110°
2026-05-04 19:09 39.10632 -11.35354 34907 ft 540 kts 110°
2026-05-04 19:10 39.09417 -11.30751 34028 ft 545 kts 110°
2026-05-04 19:10 39.08207 -11.26172 33031 ft 551 kts 110°
2026-05-04 19:10 39.06967 -11.21491 32065 ft 555 kts 110°
2026-05-04 19:10 39.05715 -11.16774 31082 ft 559 kts 110°
2026-05-04 19:11 39.04452 -11.12023 29953 ft 564 kts 110°
2026-05-04 19:11 39.03177 -11.07238 29069 ft 563 kts 110°
2026-05-04 19:11 39.01929 -11.02549 28990 ft 545 kts 110°
2026-05-04 19:11 39.00715 -10.97998 28557 ft 535 kts 110°
2026-05-04 19:12 38.99515 -10.93522 27594 ft 537 kts 110°
2026-05-04 19:12 38.97095 -10.84515 26653 ft 521 kts 110°
2026-05-04 19:12 38.95928 -10.80179 26488 ft 506 kts 110°
2026-05-04 19:13 38.94791 -10.75960 26267 ft 494 kts 110°
2026-05-04 19:13 38.93677 -10.71839 26058 ft 483 kts 110°
2026-05-04 19:13 38.92662 -10.67776 25755 ft 475 kts 103°
2026-05-04 19:13 38.92233 -10.63593 25256 ft 472 kts 92°
2026-05-04 19:14 38.92076 -10.59405 24811 ft 468 kts 91°
2026-05-04 19:14 38.91958 -10.55302 24383 ft 465 kts 91°
2026-05-04 19:14 38.91836 -10.51168 23940 ft 462 kts 91°
2026-05-04 19:14 38.91706 -10.47065 23477 ft 458 kts 91°
2026-05-04 19:15 38.91572 -10.43004 22997 ft 453 kts 91°
2026-05-04 19:15 38.91434 -10.38980 22519 ft 449 kts 91°
2026-05-04 19:15 38.91295 -10.34991 22038 ft 445 kts 91°
2026-05-04 19:15 38.91155 -10.31046 21577 ft 440 kts 91°
2026-05-04 19:16 38.91015 -10.27137 21121 ft 436 kts 91°
2026-05-04 19:16 38.90876 -10.23316 20666 ft 432 kts 91°
2026-05-04 19:16 38.90735 -10.19482 20218 ft 428 kts 91°
2026-05-04 19:16 38.90594 -10.15683 19765 ft 424 kts 91°
2026-05-04 19:17 38.90454 -10.11919 19316 ft 420 kts 91°
2026-05-04 19:17 38.90313 -10.08182 18866 ft 417 kts 91°
2026-05-04 19:17 38.90172 -10.04478 18416 ft 414 kts 91°
2026-05-04 19:17 38.90032 -10.00812 17911 ft 410 kts 91°
2026-05-04 19:18 38.89891 -9.97178 17569 ft 402 kts 91°
2026-05-04 19:18 38.89755 -9.93695 17390 ft 390 kts 91°
2026-05-04 19:18 38.89619 -9.90269 17236 ft 379 kts 91°
2026-05-04 19:18 38.89488 -9.86956 17005 ft 365 kts 91°
2026-05-04 19:19 38.89359 -9.83739 16358 ft 358 kts 91°
2026-05-04 19:19 38.89233 -9.80568 15666 ft 354 kts 91°
2026-05-04 19:19 38.89106 -9.77435 15000 ft 349 kts 91°
2026-05-04 19:19 38.88981 -9.74353 14395 ft 344 kts 91°
2026-05-04 19:20 38.88857 -9.71320 14066 ft 337 kts 91°
2026-05-04 19:20 38.88734 -9.68333 13754 ft 333 kts 91°
2026-05-04 19:20 38.88614 -9.65420 13411 ft 330 kts 91°
2026-05-04 19:20 38.88492 -9.62498 13076 ft 326 kts 91°
2026-05-04 19:21 38.88306 -9.59612 12746 ft 323 kts 100°
2026-05-04 19:21 38.87447 -9.57011 12551 ft 314 kts 129°
2026-05-04 19:21 38.85795 -9.55323 12368 ft 299 kts 160°
2026-05-04 19:21 38.83802 -9.54799 12011 ft 291 kts 182°
2026-05-04 19:22 38.81792 -9.54801 11664 ft 289 kts 186°
2026-05-04 19:22 38.79788 -9.54880 11340 ft 287 kts 186°
2026-05-04 19:22 38.77824 -9.54954 11025 ft 286 kts 185°
2026-05-04 19:22 38.75834 -9.55019 10665 ft 286 kts 185°
2026-05-04 19:23 38.73849 -9.55074 10348 ft 285 kts 184°
2026-05-04 19:23 38.71877 -9.55123 10049 ft 282 kts 184°
2026-05-04 19:23 38.69918 -9.55169 9728 ft 280 kts 184°
2026-05-04 19:23 38.67965 -9.55213 9367 ft 280 kts 184°
2026-05-04 19:24 38.66028 -9.55256 9045 ft 278 kts 184°
2026-05-04 19:24 38.64132 -9.55298 8824 ft 273 kts 184°
2026-05-04 19:24 38.62257 -9.55337 8594 ft 268 kts 184°
2026-05-04 19:24 38.60415 -9.55375 8396 ft 262 kts 184°
2026-05-04 19:25 38.58603 -9.55191 8161 ft 260 kts 174°
2026-05-04 19:25 38.56850 -9.54783 8025 ft 250 kts 172°
2026-05-04 19:25 38.55187 -9.54355 7911 ft 238 kts 171°
2026-05-04 19:25 38.53602 -9.53944 7815 ft 227 kts 171°
2026-05-04 19:26 38.52120 -9.53400 7686 ft 219 kts 156°
2026-05-04 19:26 38.50912 -9.52266 7464 ft 215 kts 129°
2026-05-04 19:26 38.50303 -9.50566 7122 ft 213 kts 94°
2026-05-04 19:26 38.50524 -9.48752 6775 ft 210 kts 65°
2026-05-04 19:27 38.51079 -9.47048 6560 ft 205 kts 62°
2026-05-04 19:27 38.51667 -9.45409 6342 ft 202 kts 62°
2026-05-04 19:27 38.52253 -9.43776 6061 ft 203 kts 62°
2026-05-04 19:27 38.52835 -9.42137 5786 ft 202 kts 60°
2026-05-04 19:28 38.53410 -9.40501 5517 ft 201 kts 61°
2026-05-04 19:28 38.53978 -9.38875 5321 ft 199 kts 63°
2026-05-04 19:28 38.54537 -9.37266 5070 ft 198 kts 60°
2026-05-04 19:28 38.55096 -9.35658 4809 ft 198 kts 62°
2026-05-04 19:29 38.55646 -9.34072 4573 ft 197 kts 62°
2026-05-04 19:29 38.56196 -9.32484 4344 ft 195 kts 60°
2026-05-04 19:29 38.56743 -9.30901 4108 ft 194 kts 60°
2026-05-04 19:29 38.57290 -9.29323 4013 ft 195 kts 61°
2026-05-04 19:30 38.57838 -9.27738 4007 ft 195 kts 62°
2026-05-04 19:30 38.58384 -9.26157 4007 ft 194 kts 61°
2026-05-04 19:30 38.58973 -9.24614 4000 ft 190 kts 47°
2026-05-04 19:30 38.59903 -9.23462 3949 ft 185 kts 29°
2026-05-04 19:31 38.61010 -9.22714 3757 ft 181 kts 18°
2026-05-04 19:31 38.62180 -9.22108 3503 ft 181 kts 17°
2026-05-04 19:31 38.63337 -9.21496 3169 ft 180 kts 22°
2026-05-04 19:31 38.64480 -9.20881 2978 ft 176 kts 18°
2026-05-04 19:32 38.65607 -9.20279 2735 ft 173 kts 18°
2026-05-04 19:32 38.66677 -9.19709 2509 ft 160 kts 17°
2026-05-04 19:32 38.67662 -9.19183 2298 ft 149 kts 16°
2026-05-04 19:32 38.68603 -9.18683 2065 ft 142 kts 15°
2026-05-04 19:33 38.69468 -9.18217 1848 ft 131 kts 18°
2026-05-04 19:33 38.70293 -9.17761 1597 ft 128 kts 17°
2026-05-04 19:33 38.71111 -9.17323 1432 ft 127 kts 15°
2026-05-04 19:33 38.71918 -9.16912 1297 ft 123 kts 15°
2026-05-04 19:34 38.72725 -9.16490 1160 ft 127 kts 19°
2026-05-04 19:34 38.73547 -9.16035 1025 ft 130 kts 17°
2026-05-04 19:34 38.74383 -9.15591 831 ft 132 kts 21°
2026-05-04 19:34 38.75251 -9.15129 670 ft 136 kts 16°
2026-05-04 19:35 38.76114 -9.14678 476 ft 137 kts 18°
2026-05-04 19:35 38.76980 -9.14199 363 ft 130 kts 20°
2026-05-04 19:35 38.77662 -9.13841 373 ft 78 kts 23°
2026-05-04 19:35 38.78031 -9.13642 373 ft 50 kts 22°
2026-05-04 19:36 38.78303 -9.13447 373 ft 30 kts 45°
2026-05-04 19:36 38.78360 -9.13291 370 ft 17 kts 128°
2026-05-04 19:36 38.78255 -9.13298 369 ft 12 kts 202°
2026-05-04 19:36 38.78249 -9.13301 369 ft 0 kts 202°